Location: Taylor Dark Sky Site
(39.1017°N, 87.9564°W)
Time: 19:27:51
(UTC-05:00)

Amateur Radio Satellites - All Passes

Search period start: 27 August 2016 18:57
Search period end: 28 August 2016 18:57
Location: Taylor Dark Sky Site, 39.1017°N, 87.9564°W

Satellite Date Start Highest point End Downlink Frequencies (MHz)
Time Altitude Azimuth
Cosmos 2491 27 Aug 19:10:22 19:18:58 63° 281° (W) 19:27:40 435.465 / 435.565
CANX-2 27 Aug 19:11:08 19:14:32 24° 69° (ENE) 19:17:56 2200.000
GOMX 1 27 Aug 19:12:00 19:16:33 34° 265° (W) 19:21:21 467.674
Cubesat XI-IV 27 Aug 19:14:12 19:18:56 32° 263° (W) 19:23:42 437.490
CUTE 1.7 + AOD 2 27 Aug 19:17:14 19:20:39 25° 69° (ENE) 19:24:05 437.475
DOVE 4 27 Aug 19:18:24 19:23:28 62° 260° (W) 19:28:45 437.250
AAUSAT CUBESAT 2 27 Aug 19:23:56 19:24:52 11° 64° (ENE) 19:25:47 437.432
CUTE-I 27 Aug 19:26:39 19:30:56 24° 265° (W) 19:35:15 437.470
NOAA 15 27 Aug 19:29:08 19:32:37 18° 267° (W) 19:36:08 137.62
COMPASS 1 27 Aug 19:30:04 19:32:40 17° 67° (ENE) 19:35:18 437.405
YUBILEINY 27 Aug 19:32:54 19:39:34 25° 279° (W) 19:46:12 435.215
BEESAT 2 27 Aug 19:34:34 19:38:35 73° 241° (WSW) 19:42:33 435.950
PCSat 27 Aug 19:40:55 19:43:36 14° 42° (NE) 19:46:18 145.827
Cosmos 2504 27 Aug 19:48:28 19:55:17 47° 270° (W) 20:02:03 435.465 / 435.565
BEESAT 3 27 Aug 19:53:36 19:56:40 22° 248° (WSW) 19:59:44 437.485
HO-68 27 Aug 19:56:08 20:03:20 85° 74° (ENE) 20:10:34 435.675
CINEMA 3 27 Aug 19:59:42 20:04:44 80° 258° (WSW) 20:09:44 145.822/145.860
STRAND 1 27 Aug 20:03:10 20:08:15 63° 102° (ESE) 20:13:18 437.568
Oscar 11 27 Aug 20:04:42 20:06:45 13° 65° (ENE) 20:08:48 145.826/435.025
NOAA 18 27 Aug 20:08:56 20:10:53 12° 270° (W) 20:12:51 137.9125
AIST 2 27 Aug 20:09:04 20:11:08 13° 43° (NE) 20:13:11 435.215
FUNcube-1 27 Aug 20:11:32 20:14:06 15° 66° (ENE) 20:16:39 145.935
UWE-3 27 Aug 20:16:48 20:20:45 29° 70° (ENE) 20:24:38 435.000/436.395/437.385
CUBEBUG 2 27 Aug 20:18:29 20:22:58 46° 73° (ENE) 20:27:22 437.445
SEEDS 27 Aug 20:24:28 20:28:37 77° 258° (WSW) 20:32:47 437.485
AIST 1 27 Aug 20:25:47 20:30:07 52° 80° (E) 20:34:23
ZACube-1 27 Aug 20:31:40 20:35:24 27° 70° (ENE) 20:39:05 437.345
CANX-2 27 Aug 20:46:48 20:50:17 25° 264° (W) 20:53:48 2200.000
CUTE 1.7 + AOD 2 27 Aug 20:52:55 20:56:24 25° 265° (W) 20:59:54 437.475
AAUSAT CUBESAT 2 27 Aug 20:55:44 20:59:48 62° 260° (W) 21:03:53 437.432
DELFI C3 27 Aug 21:00:39 21:03:36 21° 69° (ENE) 21:06:33 145.870
COMPASS 1 27 Aug 21:04:06 21:07:56 37° 262° (W) 21:11:47 437.405
Cosmos 2491 27 Aug 21:15:39 21:17:49 11° 303° (WNW) 21:20:00 435.465 / 435.565
HUMSAT D 27 Aug 21:19:00 21:21:43 17° 67° (ENE) 21:24:26 437.325/437.525
PCSat 27 Aug 21:22:25 21:27:53 80° 61° (ENE) 21:33:17 145.827
M-CUBED/EXP-1 PRIME 27 Aug 21:32:39 21:35:04 14° 58° (ENE) 21:37:28 437.505
Oscar 11 27 Aug 21:38:13 21:42:25 53° 260° (W) 21:46:38 145.826/435.025
PRISM 27 Aug 21:39:20 21:43:31 76° 101° (E) 21:47:41 437.425
STRAND 1 27 Aug 21:43:57 21:46:52 16° 298° (WNW) 21:49:49 437.568
FUNcube-1 27 Aug 21:45:39 21:49:58 48° 261° (W) 21:54:12 145.935
AIST 2 27 Aug 21:45:55 21:50:06 74° 241° (WSW) 21:54:16 435.215
HO-68 27 Aug 21:47:40 21:51:48 16° 270° (W) 21:55:57 435.675
GONETS M04 27 Aug 21:51:06 21:57:20 21° 65° (ENE) 22:03:33
UWE-3 27 Aug 21:53:24 21:57:10 25° 265° (W) 22:00:53 435.000/436.395/437.385
CUBEBUG 2 27 Aug 21:56:48 21:59:46 16° 268° (W) 22:02:42 437.445
TIGRISAT 27 Aug 22:02:52 22:04:16 11° 91° (E) 22:05:39 435.000
AIST 1 27 Aug 22:05:29 22:07:09 12° 276° (W) 22:08:49
ZACube-1 27 Aug 22:07:52 22:11:36 26° 264° (W) 22:15:18 437.345
UNISAT 6 27 Aug 22:29:39 22:33:14 26° 96° (E) 22:36:47 437.425
DELFI C3 27 Aug 22:34:56 22:38:16 26° 264° (W) 22:41:38 145.870
Cosmos 2499 27 Aug 22:52:31 22:58:49 33° 74° (ENE) 23:05:09 435.465 / 435.565
HUMSAT D 27 Aug 22:53:12 22:57:04 36° 262° (W) 23:00:54 437.325/437.525
O/OREOS (USA 219) 27 Aug 22:53:55 22:57:00 17° 56° (ENE) 23:00:03 437.305
VELOX 1 27 Aug 22:55:08 22:58:14 19° 66° (ENE) 23:01:21 145.980
CUBEBUG 1 27 Aug 22:56:31 22:59:59 23° 68° (ENE) 23:03:28 437.445
SO-50 27 Aug 22:57:20 23:01:21 26° 112° (ESE) 23:05:21 436.795
AUBIESAT-1 27 Aug 22:58:35 23:03:12 84° 73° (ENE) 23:07:52 437.475
M-CUBED/EXP-1 PRIME 27 Aug 23:04:19 23:08:58 71° 254° (WSW) 23:13:41 437.505
ANTELSAT 27 Aug 23:06:06 23:10:23 69° 101° (E) 23:14:37 437.575/2403.000
PCSat 27 Aug 23:08:23 23:10:31 12° 258° (WSW) 23:12:38 145.827
DX 1 27 Aug 23:12:02 23:15:09 19° 66° (ENE) 23:18:17 434.975-435.025
SPROUT 27 Aug 23:14:47 23:17:12 15° 65° (ENE) 23:19:37 437.525
50 SAT 27 Aug 23:22:59 23:26:11 31° 72° (ENE) 23:29:23 437.505
ESTCUBE 1 27 Aug 23:34:47 23:39:15 86° 259° (W) 23:43:46 437.505/2401.250
TIGRISAT 27 Aug 23:37:07 23:41:19 54° 286° (WNW) 23:45:26 435.000
DUCHIFAT 1 27 Aug 23:39:54 23:42:52 18° 94° (E) 23:45:48 145.980
DANDE 27 Aug 23:40:11 23:40:56 11° 89° (E) 23:41:41 436.750
QB50P2 27 Aug 23:42:21 23:45:49 24° 96° (E) 23:49:15 145.880/145.840
AISAT 27 Aug 23:42:33 23:46:58 65° 74° (ENE) 23:51:24 437.250
POLYITAN 1 27 Aug 23:44:52 23:48:20 24° 96° (E) 23:51:46 437.675
GONETS M04 27 Aug 23:46:20 23:55:13 82° 265° (W) 00:04:03
UKube-1 27 Aug 23:51:11 23:55:12 39° 71° (ENE) 23:59:15 .
NANOSAT C BR1 27 Aug 23:53:13 23:56:53 28° 96° (E) 00:00:30 145.865
UNISAT 6 28 Aug 00:06:22 00:09:52 25° 291° (WNW) 00:13:19 437.425
JAS-2 28 Aug 00:13:40 00:19:55 34° 97° (E) 00:26:40 435.910
CUSAT 1 28 Aug 00:22:11 00:24:38 24° 289° (WNW) 00:27:30 437.405
VELOX 1 28 Aug 00:30:15 00:34:23 39° 262° (W) 00:38:35 145.980
RS-15 28 Aug 00:32:12 00:42:27 40° 106° (ESE) 00:53:10 29.354- 29.394
CUBEBUG 1 28 Aug 00:32:13 00:36:06 30° 264° (W) 00:40:00 437.445
O/OREOS (USA 219) 28 Aug 00:32:15 00:36:39 48° 254° (WSW) 00:41:04 437.305
BUGSAT 1 28 Aug 00:33:55 00:37:37 31° 97° (E) 00:41:16 437.445
QB50P1 28 Aug 00:36:57 00:41:11 80° 282° (WNW) 00:45:22 145.935-145.965
SO-50 28 Aug 00:37:10 00:41:40 37° 308° (NW) 00:46:09 436.795
Cosmos 2499 28 Aug 00:45:30 00:51:54 39° 272° (W) 00:58:24 435.465 / 435.565
ANTELSAT 28 Aug 00:45:50 00:46:29 10° 298° (WNW) 00:47:08 437.575/2403.000
POPSAT HIP 1 28 Aug 00:47:02 00:51:13 62° 286° (WNW) 00:55:20 437.405
DX 1 28 Aug 00:47:03 00:51:03 36° 262° (W) 00:55:08 434.975-435.025
SPROUT 28 Aug 00:48:34 00:52:43 48° 261° (W) 00:56:55 437.525
50 SAT 28 Aug 00:57:56 00:59:50 14° 267° (W) 01:01:46 437.505
BEESAT 28 Aug 01:04:33 01:05:49 11° 61° (ENE) 01:07:05 436.000
TISAT 1 28 Aug 01:06:49 01:10:58 56° 74° (ENE) 01:15:09 437.305
DUCHIFAT 1 28 Aug 01:14:51 01:18:37 33° 289° (WNW) 01:22:22 145.980
QB50P2 28 Aug 01:18:03 01:21:33 26° 291° (WNW) 01:25:02 145.880/145.840
PHONESAT 2.4 28 Aug 01:18:09 01:20:31 21° 151° (SSE) 01:22:53 2401.200-2431.200
POLYITAN 1 28 Aug 01:20:35 01:24:04 25° 291° (WNW) 01:27:30 437.675
DANDE 28 Aug 01:22:17 01:23:30 12° 289° (WNW) 01:24:46 436.750
AISAT 28 Aug 01:22:50 01:23:50 11° 270° (W) 01:24:51 437.250
UKube-1 28 Aug 01:28:35 01:31:23 17° 267° (W) 01:34:12 .
NANOSAT C BR1 28 Aug 01:29:12 01:32:27 22° 292° (WNW) 01:35:41 145.865
Gurwin Techsat 1B 28 Aug 01:40:55 01:43:39 14° 91° (E) 01:46:23 435.225
GONETS M04 28 Aug 01:46:15 01:50:32 15° 284° (WNW) 01:54:50
ITUPSAT 1 28 Aug 01:48:50 01:52:58 30° 69° (ENE) 01:57:07 437.325
JAS-2 28 Aug 01:58:30 02:04:56 45° 290° (WNW) 02:12:00 435.910
Oscar 19 28 Aug 02:06:12 02:11:20 56° 101° (E) 02:16:25 437.125/150
BUGSAT 1 28 Aug 02:09:48 02:12:46 19° 293° (WNW) 02:15:42 437.445
SWISSCUBE 28 Aug 02:21:03 02:25:47 75° 75° (ENE) 02:30:32 437.505
BEESAT 28 Aug 02:38:09 02:42:54 81° 256° (WSW) 02:47:41 436.000
RS-15 28 Aug 02:42:57 02:54:21 61° 309° (NW) 03:06:25 29.354- 29.394
KKS-1 28 Aug 02:44:19 02:46:17 13° 63° (ENE) 02:48:14 437.445
TISAT 1 28 Aug 02:45:31 02:46:56 11° 269° (W) 02:48:22 437.305
MOZHAYETS 4 28 Aug 02:50:43 02:53:54 19° 66° (ENE) 02:57:04
PHONESAT 2.4 28 Aug 02:53:37 02:56:37 85° 169° (S) 02:59:38 2401.200-2431.200
Gurwin Techsat 1B 28 Aug 03:18:46 03:24:03 67° 286° (WNW) 03:29:18 435.225
STARS 28 Aug 03:18:53 03:21:18 15° 64° (ENE) 03:23:42 437.465
ITAMSAT 1 28 Aug 03:21:08 03:25:57 38° 98° (E) 03:30:43 435.822/435.867
ITUPSAT 1 28 Aug 03:26:47 03:30:46 26° 264° (W) 03:34:45 437.325
Cosmos 2491 28 Aug 03:29:25 03:31:53 11° 57° (ENE) 03:34:20 435.465 / 435.565
Oscar 19 28 Aug 03:46:45 03:50:10 18° 297° (WNW) 03:53:34 437.125/150
AO-7 28 Aug 03:56:54 04:04:36 40° 99° (E) 04:12:14 29.400- 29.500
SWISSCUBE 28 Aug 04:03:45 04:04:05 10° 270° (W) 04:04:25 437.505
CUBESAT XI-V 28 Aug 04:11:49 04:14:47 17° 65° (ENE) 04:17:47 437.345
KKS-1 28 Aug 04:17:52 04:22:18 62° 259° (W) 04:26:46 437.445
MOZHAYETS 4 28 Aug 04:26:28 04:30:44 40° 261° (W) 04:35:03
PHONESAT 2.4 28 Aug 04:30:04 04:33:03 64° 3° (N) 04:36:02 2401.200-2431.200
AO-85 28 Aug 04:35:27 04:39:52 27° 112° (ESE) 04:44:07 145.980
YUBILEINY 28 Aug 04:43:26 04:47:12 13° 75° (ENE) 04:50:58 435.215
STARS 28 Aug 04:52:52 04:57:11 52° 260° (W) 05:01:33 437.465
ITAMSAT 1 28 Aug 05:01:00 05:05:11 25° 294° (WNW) 05:09:21 435.822/435.867
RS-15 28 Aug 05:01:08 05:10:11 24° 338° (NNW) 05:19:34 29.354- 29.394
Cosmos 2491 28 Aug 05:21:56 05:30:43 63° 79° (E) 05:39:27 435.465 / 435.565
HORYU 2 28 Aug 05:32:24 05:36:34 39° 99° (E) 05:40:41 437.375
CUBESAT XI-V 28 Aug 05:47:22 05:51:47 46° 261° (W) 05:56:15 437.345
AO-7 28 Aug 05:49:39 05:57:22 45° 297° (WNW) 06:05:03 29.400- 29.500
Cubesat XI-IV 28 Aug 05:54:16 05:56:30 13° 90° (E) 05:58:44 437.490
BRITE-PL 28 Aug 06:02:37 06:07:58 40° 96° (E) 06:13:10 437.365/2234.400
NOAA 15 28 Aug 06:04:25 06:08:28 22° 94° (E) 06:12:29 137.62
CUTE-I 28 Aug 06:05:02 06:08:24 17° 92° (E) 06:11:45 437.470
PHONESAT 2.4 28 Aug 06:06:28 06:09:25 56° 198° (SSW) 06:12:21 2401.200-2431.200
AO-85 28 Aug 06:15:10 06:20:11 42° 307° (NW) 06:24:56 145.980
Cosmos 2504 28 Aug 06:32:32 06:39:15 27° 84° (E) 06:45:38 435.465 / 435.565
YUBILEINY 28 Aug 06:33:37 06:42:25 78° 95° (E) 06:51:16 435.215
NOAA 18 28 Aug 06:47:37 06:52:41 37° 98° (E) 06:57:42 137.9125
HORYU 2 28 Aug 07:09:47 07:12:49 18° 294° (WNW) 07:15:50 437.375
GOMX 1 28 Aug 07:14:29 07:19:56 86° 104° (ESE) 07:25:04 467.674
LilacSat-2 28 Aug 07:15:07 07:18:53 80° 284° (WNW) 07:22:39 437.200
STRAND 1 28 Aug 07:17:49 07:22:55 81° 76° (ENE) 07:28:02 437.568
DOVE 4 28 Aug 07:19:04 07:23:51 42° 97° (E) 07:28:19 437.250
Cosmos 2491 28 Aug 07:19:56 07:26:49 27° 278° (W) 07:33:43 435.465 / 435.565
RS-15 28 Aug 07:20:13 07:29:00 22° 15° (NNE) 07:37:50 29.354- 29.394
ISS 28 Aug 07:27:09 07:28:38 13° 129° (SE) 07:30:08 145.825
HO-68 28 Aug 07:27:10 07:31:23 16° 91° (E) 07:35:34 435.675
SO-50 28 Aug 07:29:50 07:33:09 19° 44° (NE) 07:36:24 436.795
Cubesat XI-IV 28 Aug 07:31:47 07:37:06 74° 286° (WNW) 07:42:23 437.490
BRITE-PL 28 Aug 07:41:25 07:46:11 28° 293° (WNW) 07:50:52 437.365/2234.400
NOAA 15 28 Aug 07:43:22 07:48:24 45° 290° (WNW) 07:53:26 137.62
CUTE-I 28 Aug 07:43:35 07:48:47 57° 288° (WNW) 07:53:58 437.470
PHONESAT 2.4 28 Aug 07:44:05 07:45:21 12° 214° (SSW) 07:46:35 2401.200-2431.200
CINEMA 3 28 Aug 07:56:40 08:00:24 26° 94° (E) 08:03:59 145.822/145.860
SEEDS 28 Aug 08:10:15 08:13:13 19° 94° (E) 08:16:11 437.485
Cosmos 2504 28 Aug 08:23:48 08:32:08 58° 281° (W) 08:39:56 435.465 / 435.565
PRISM 28 Aug 08:27:28 08:31:21 44° 72° (ENE) 08:35:17 437.425
NOAA 18 28 Aug 08:28:35 08:33:09 28° 295° (WNW) 08:37:42 137.9125
CANX-2 28 Aug 08:31:56 08:36:07 56° 100° (E) 08:40:17 2200.000
YUBILEINY 28 Aug 08:33:44 08:40:10 22° 294° (WNW) 08:46:39 435.215
CUTE 1.7 + AOD 2 28 Aug 08:37:56 08:42:06 57° 100° (E) 08:46:17 437.475
AAUSAT CUBESAT 2 28 Aug 08:39:37 08:42:50 21° 94° (E) 08:46:02 437.432
COMPASS 1 28 Aug 08:47:45 08:51:34 34° 97° (E) 08:55:23 437.405
AIST 1 28 Aug 08:53:57 08:57:49 32° 91° (E) 09:01:43
GOMX 1 28 Aug 08:54:58 08:57:08 12° 300° (WNW) 08:59:15 467.674
DOVE 4 28 Aug 08:57:27 09:01:10 21° 295° (WNW) 09:04:43 437.250
TIGRISAT 28 Aug 09:01:18 09:02:26 11° 63° (ENE) 09:03:33 435.000
ISS 28 Aug 09:01:28 09:04:43 62° 323° (NW) 09:07:59 145.825
STRAND 1 28 Aug 09:01:40 09:02:39 10° 271° (W) 09:03:39 437.568
SO-50 28 Aug 09:09:29 09:13:57 53° 243° (WSW) 09:18:16 436.795
CUSAT 1 28 Aug 09:11:24 09:16:17 21° 71° (ENE) 09:21:44 437.405
HO-68 28 Aug 09:12:38 09:19:51 83° 287° (WNW) 09:26:59 435.675
BEESAT 2 28 Aug 09:25:49 09:29:01 24° 112° (ESE) 09:32:15 435.950
Oscar 11 28 Aug 09:26:42 09:30:27 28° 96° (E) 09:34:11 145.826/435.025
UNISAT 6 28 Aug 09:27:26 09:30:58 22° 68° (ENE) 09:34:28 437.425
CINEMA 3 28 Aug 09:33:43 09:37:28 26° 292° (WNW) 09:41:05 145.822/145.860
RS-15 28 Aug 09:33:46 09:45:41 49° 46° (NE) 09:57:23 29.354- 29.394
FUNcube-1 28 Aug 09:34:57 09:38:39 31° 97° (E) 09:42:21 145.935
BEESAT 3 28 Aug 09:41:54 09:45:47 79° 120° (ESE) 09:49:44 437.485
UWE-3 28 Aug 09:43:18 09:47:29 72° 102° (ESE) 09:51:36 435.000/436.395/437.385
SEEDS 28 Aug 09:45:11 09:48:59 33° 289° (WNW) 09:52:46 437.485
CUBEBUG 2 28 Aug 09:47:00 09:51:12 66° 284° (WNW) 09:55:18 437.445
ZACube-1 28 Aug 09:56:29 10:00:37 63° 101° (E) 10:04:42 437.345
ANTELSAT 28 Aug 10:03:17 10:07:45 53° 74° (ENE) 10:12:10 437.575/2403.000
PRISM 28 Aug 10:04:53 10:06:54 13° 268° (W) 10:08:54 437.425
CANX-2 28 Aug 10:09:44 10:11:28 12° 296° (WNW) 10:13:13 2200.000
DELFI C3 28 Aug 10:12:52 10:16:37 38° 98° (E) 10:20:22 145.870
DANDE 28 Aug 10:13:24 10:17:53 24° 75° (ENE) 10:23:17 436.750
AAUSAT CUBESAT 2 28 Aug 10:14:43 10:18:17 28° 290° (WNW) 10:21:53 437.432
CUTE 1.7 + AOD 2 28 Aug 10:15:45 10:17:27 12° 296° (WNW) 10:19:08 437.475
PCSat 28 Aug 10:23:55 10:25:26 11° 102° (ESE) 10:26:58 145.827
COMPASS 1 28 Aug 10:23:57 10:26:53 19° 292° (WNW) 10:29:48 437.405
DUCHIFAT 1 28 Aug 10:31:48 10:33:47 13° 64° (ENE) 10:35:45 145.980
AIST 1 28 Aug 10:32:19 10:35:28 19° 287° (WNW) 10:38:39
TIGRISAT 28 Aug 10:33:53 10:38:31 76° 259° (W) 10:43:02 435.000
QB50P2 28 Aug 10:34:31 10:37:18 17° 66° (ENE) 10:40:05 145.880/145.840
POLYITAN 1 28 Aug 10:37:00 10:39:49 17° 66° (ENE) 10:42:39 437.675
HUMSAT D 28 Aug 10:37:26 10:41:11 34° 98° (E) 10:44:55 437.325/437.525
ISS 28 Aug 10:39:50 10:41:43 14° 342° (NNW) 10:43:37 145.825
NANOSAT C BR1 28 Aug 10:44:42 10:47:46 20° 67° (ENE) 10:50:50 145.865
GONETS M04 28 Aug 10:51:44 10:58:12 24° 81° (E) 11:04:41
CUSAT 1 28 Aug 10:52:00 10:58:35 73° 263° (W) 11:06:22 437.405
HO-68 28 Aug 11:02:31 11:06:29 16° 306° (NW) 11:10:26 435.675
Oscar 11 28 Aug 11:03:01 11:06:26 23° 291° (WNW) 11:09:50 145.826/435.025
UNISAT 6 28 Aug 11:03:18 11:07:29 34° 263° (W) 11:11:37 437.425
BEESAT 2 28 Aug 11:03:19 11:06:43 27° 309° (NW) 11:10:10 435.950
FUNcube-1 28 Aug 11:11:45 11:14:41 19° 292° (WNW) 11:17:37 145.935
BEESAT 3 28 Aug 11:22:40 11:23:59 11° 318° (NW) 11:25:18 437.485
BUGSAT 1 28 Aug 11:22:49 11:25:58 21° 68° (ENE) 11:29:09 437.445
Cosmos 2499 28 Aug 11:27:45 11:34:35 31° 86° (E) 11:41:01 435.465 / 435.565
QB50P1 28 Aug 11:27:48 11:32:01 63° 75° (ENE) 11:36:15 145.935-145.965
ESTCUBE 1 28 Aug 11:29:02 11:32:32 22° 94° (E) 11:36:02 437.505/2401.250
ZACube-1 28 Aug 11:35:35 11:36:20 10° 297° (WNW) 11:37:06 437.345
AISAT 28 Aug 11:35:35 11:37:47 13° 92° (E) 11:39:56 437.250
POPSAT HIP 1 28 Aug 11:37:49 11:42:06 82° 74° (ENE) 11:46:24 437.405
ANTELSAT 28 Aug 11:42:20 11:44:43 14° 268° (W) 11:47:05 437.575/2403.000
AIST 2 28 Aug 11:42:36 11:46:09 29° 113° (ESE) 11:49:44 435.215
JUGNU 28 Aug 11:43:54 11:44:57 10° 175° (S) 11:46:00 437.505
RS-15 28 Aug 11:46:35 11:58:24 55° 249° (WSW) 12:09:57 29.354- 29.394
DELFI C3 28 Aug 11:48:45 11:51:09 15° 293° (WNW) 11:53:32 145.870
DANDE 28 Aug 11:55:10 12:00:38 52° 264° (W) 12:07:38 436.750
PCSat 28 Aug 12:02:36 12:08:01 86° 296° (WNW) 12:13:29 145.827
DUCHIFAT 1 28 Aug 12:04:50 12:08:59 54° 260° (W) 12:13:10 145.980
QB50P2 28 Aug 12:08:46 12:12:47 39° 262° (W) 12:16:49 145.880/145.840
JAS-2 28 Aug 12:10:13 12:15:22 76° 75° (ENE) 12:20:53 435.910
POLYITAN 1 28 Aug 12:11:17 12:15:18 39° 261° (W) 12:19:20 437.675
AUBIESAT-1 28 Aug 12:13:32 12:17:33 73° 106° (ESE) 12:21:14 437.475
HUMSAT D 28 Aug 12:13:48 12:16:32 18° 293° (WNW) 12:19:16 437.325/437.525
NANOSAT C BR1 28 Aug 12:19:23 12:23:15 34° 262° (W) 12:27:09 145.865
M-CUBED/EXP-1 PRIME 28 Aug 12:19:52 12:23:58 74° 289° (WNW) 12:27:42 437.505
VELOX 1 28 Aug 12:21:10 12:25:25 41° 99° (E) 12:29:36 145.980
CUBEBUG 1 28 Aug 12:21:16 12:25:37 52° 100° (E) 12:29:54 437.445
50 SAT 28 Aug 12:25:13 12:28:45 46° 100° (E) 12:32:16 437.505
SPROUT 28 Aug 12:35:45 12:39:31 30° 97° (E) 12:43:15 437.525
DX 1 28 Aug 12:36:00 12:40:09 39° 99° (E) 12:44:14 434.975-435.025
CUSAT 1 28 Aug 12:37:35 12:39:53 12° 276° (W) 12:42:18 437.405
GONETS M04 28 Aug 12:45:25 12:54:07 69° 280° (W) 13:02:56
BUGSAT 1 28 Aug 12:57:19 13:01:08 32° 263° (W) 13:04:58 437.445
Gurwin Techsat 1B 28 Aug 13:00:29 13:04:27 22° 64° (ENE) 13:08:24 435.225
O/OREOS (USA 219) 28 Aug 13:05:06 13:08:31 22° 101° (E) 13:11:56 437.305
ESTCUBE 1 28 Aug 13:05:18 13:09:23 33° 290° (WNW) 13:13:27 437.505/2401.250
QB50P1 28 Aug 13:08:00 13:08:10 10° 270° (W) 13:08:21 145.935-145.965
AO-85 28 Aug 13:09:01 13:11:35 15° 42° (NE) 13:14:04 145.980
AO-7 28 Aug 13:10:04 13:11:34 11° 44° (NE) 13:13:04 29.400- 29.500
AISAT 28 Aug 13:10:11 13:14:32 52° 287° (WNW) 13:18:51 437.250
UKube-1 28 Aug 13:14:51 13:19:12 86° 99° (E) 13:23:32 .
Cosmos 2499 28 Aug 13:19:29 13:27:22 50° 282° (WNW) 13:34:43 435.465 / 435.565
AIST 2 28 Aug 13:21:10 13:24:36 25° 310° (NW) 13:28:04 435.215
Oscar 19 28 Aug 13:21:46 13:26:53 73° 75° (ENE) 13:32:05 437.125/150
JUGNU 28 Aug 13:32:13 13:33:00 10° 186° (S) 13:33:48 437.505
PCSat 28 Aug 13:49:16 13:52:13 15° 317° (NW) 13:55:11 145.827
ISS 28 Aug 13:54:29 13:56:53 18° 23° (NNE) 13:59:16 145.825
VELOX 1 28 Aug 13:58:31 14:01:32 18° 294° (WNW) 14:04:33 145.980
CUBEBUG 1 28 Aug 13:59:02 14:01:25 14° 296° (WNW) 14:03:48 437.445
JAS-2 28 Aug 14:00:01 14:01:16 11° 273° (W) 14:02:32 435.910
50 SAT 28 Aug 14:00:54 14:01:54 11° 295° (WNW) 14:02:53 437.505
SPROUT 28 Aug 14:11:59 14:15:17 22° 292° (WNW) 14:18:33 437.525
DX 1 28 Aug 14:13:02 14:16:01 18° 294° (WNW) 14:18:59 434.975-435.025
SWISSCUBE 28 Aug 14:23:08 14:26:42 21° 94° (E) 14:30:15 437.505
TISAT 1 28 Aug 14:27:15 14:31:26 68° 285° (WNW) 14:35:34 437.305
ITAMSAT 1 28 Aug 14:37:52 14:42:53 52° 72° (ENE) 14:47:55 435.822/435.867
Gurwin Techsat 1B 28 Aug 14:38:56 14:44:01 47° 260° (W) 14:49:10 435.225
BEESAT 28 Aug 14:39:47 14:43:51 27° 96° (E) 14:47:54 436.000
O/OREOS (USA 219) 28 Aug 14:43:37 14:47:40 33° 298° (WNW) 14:51:47 437.305
AO-85 28 Aug 14:48:20 14:52:28 57° 243° (WSW) 14:56:19 145.980
GONETS M04 28 Aug 14:49:14 14:52:45 13° 301° (WNW) 14:56:19
AO-7 28 Aug 14:54:25 15:02:22 51° 64° (ENE) 15:10:19 29.400- 29.500
Oscar 19 28 Aug 15:04:40 15:06:43 12° 270° (W) 15:08:48 437.125/150
SRMSAT 28 Aug 15:10:06 15:11:34 11° 181° (S) 15:13:02 437.500
ITUPSAT 1 28 Aug 15:27:17 15:32:05 86° 106° (ESE) 15:36:52 437.325
ISS 28 Aug 15:30:22 15:33:39 72° 221° (SW) 15:36:54 145.825
SWISSCUBE 28 Aug 16:00:11 16:04:35 38° 290° (WNW) 16:08:59 437.505
KKS-1 28 Aug 16:10:20 16:14:06 26° 96° (E) 16:17:50 437.445
BEESAT 28 Aug 16:17:28 16:21:34 29° 292° (WNW) 16:25:39 436.000
ITAMSAT 1 28 Aug 16:19:13 16:22:38 18° 267° (W) 16:26:03 435.822/435.867
MOZHAYETS 4 28 Aug 16:22:11 16:26:37 49° 99° (E) 16:31:03
HORYU 2 28 Aug 16:29:18 16:33:15 32° 70° (ENE) 16:37:14 437.375
Cosmos 2491 28 Aug 16:31:27 16:34:40 12° 75° (ENE) 16:37:53 435.465 / 435.565
STARS 28 Aug 16:43:37 16:47:27 29° 97° (E) 16:51:15 437.465
YUBILEINY 28 Aug 16:45:45 16:53:41 36° 72° (ENE) 17:01:30 435.215
AO-7 28 Aug 16:47:49 16:55:16 35° 262° (W) 17:02:46 29.400- 29.500
GOMX 1 28 Aug 16:48:02 16:48:31 10° 58° (ENE) 16:48:59 467.674
ITUPSAT 1 28 Aug 17:08:23 17:09:10 10° 300° (WNW) 17:09:58 437.325
BRITE-PL 28 Aug 17:12:10 17:16:36 36° 69° (ENE) 17:21:23 437.365/2234.400
Cubesat XI-IV 28 Aug 17:14:29 17:18:21 21° 64° (ENE) 17:22:13 437.490
NOAA 15 28 Aug 17:23:14 17:27:48 31° 68° (ENE) 17:32:25 137.62
CUTE-I 28 Aug 17:25:27 17:29:47 26° 66° (ENE) 17:34:08 437.470
CUBESAT XI-V 28 Aug 17:44:44 17:49:17 46° 99° (E) 17:53:48 437.345
BEESAT 2 28 Aug 17:45:17 17:47:18 13° 44° (NE) 17:49:17 435.950
KKS-1 28 Aug 17:46:50 17:50:35 27° 291° (WNW) 17:54:17 437.445
LilacSat-2 28 Aug 17:55:46 17:59:22 39° 73° (ENE) 18:02:58 437.200
HO-68 28 Aug 17:57:30 18:00:06 12° 52° (NE) 18:02:42 435.675
BEESAT 3 28 Aug 18:00:16 18:03:51 31° 52° (NE) 18:07:23 437.485
MOZHAYETS 4 28 Aug 18:00:35 18:03:22 16° 295° (WNW) 18:06:09
HORYU 2 28 Aug 18:06:24 18:09:50 22° 265° (W) 18:13:17 437.375
NOAA 18 28 Aug 18:12:35 18:18:03 65° 73° (ENE) 18:23:33 137.9125
Cosmos 2504 28 Aug 18:17:57 18:24:51 45° 76° (ENE) 18:31:39 435.465 / 435.565
STARS 28 Aug 18:20:08 18:23:39 24° 292° (WNW) 18:27:09 437.465
GOMX 1 28 Aug 18:20:30 18:25:34 79° 76° (ENE) 18:30:58 467.674
Cosmos 2491 28 Aug 18:21:12 18:29:51 75° 94° (E) 18:38:36 435.465 / 435.565
DOVE 4 28 Aug 18:22:26 18:27:13 39° 70° (ENE) 18:32:07 437.250
